Location: Geelbroek
(52.9503°N, 6.5712°E)
Time: 12:30:24
(UTC+00:00)

CZ-4B R/B - Pass Details

Date: 15 May 2026
Orbit: 807 x 881 km, 98.9° (Epoch: 8 June)

Event Time Altitude Azimuth Distance (km) Brightness Sun altitude
Rises 20:06:10 0° 174° (S) 3,466 5.9 -5.7°
Reaches altitude 10° 20:08:36 10° 178° (S) 2,529 5.3 -5.9°
Maximum altitude 20:14:10 60° 258° (WSW) 996 3.8 -6.5°
Drops below altitude 10° 20:19:42 10° 338° (NNW) 2,514 6.9 -7.1°
Sets 20:22:07 0° 343° (NNW) 3,445 7.7 -7.4°
